Location: Earls Croome
(52.0667°N, 2.2000°W)
Time: 23:09:19
(UTC+00:00)

NOSS 2-2 (D) - Pass Details

Date: 17 November 2019
Orbit: 488 x 1720 km, 63.3° (Epoch: 03 December)

Event Time Altitude Azimuth Distance (km) Brightness Sun altitude
Exits shadow 04:28:47 74° 250° (WSW) 1,030 4.3 -27.8°
Maximum altitude 04:29:02 75° 228° (SW) 1,034 4.4 -27.7°
Drops below altitude 10° 04:36:42 10° 145° (SE) 3,255 7.6 -26.6°
Sets 04:39:57 0° 144° (SE) 4,409 8.4 -26.1°
